DW9177 Weather Reports


Display with metric or nautical units.
time (UTC)temp
F
wind
direction
speed
MPH
gust
MPH
rain 1hr
in
rain 24hr
in
rain mn
in
humidity
%
barometer
mb
20260903174549 87 129 2.0 5.0 0.00 0.00 0.00 52 1009.7
20260903173051 86 105 1.0 7.0 0.00 0.00 0.00 53 1009.9
20260903171545 86 105 1.0 6.0 0.00 0.00 0.00 54 1009.8
20260903170054 85 103 0.0 5.0 0.00 0.00 0.00 56 1009.8
20260903164541 84 100 0.0 6.0 0.00 0.00 0.00 59 1009.8
20260903163058 83 95 0.0 5.0 0.00 0.00 0.00 59 1009.9
20260903161541 83 108 2.0 5.0 0.00 0.00 0.00 60 1009.9
20260903160039 83 131 0.0 5.0 0.00 0.00 0.00 61 1010.0
20260903154537 83 105 0.0 2.0 0.00 0.00 0.00 61 1010.0
20260903153034 81 120 0.0 3.0 0.00 0.00 0.00 63 1009.9
20260903151532 81 104 0.0 4.0 0.00 0.00 0.00 63 1010.0
20260903150046 80 112 0.0 4.0 0.00 0.00 0.00 65 1009.9
20260903144531 80 108 0.0 0.0 0.00 0.00 0.00 65 1010.0
20260903143036 79 105 0.0 0.0 0.00 0.00 0.00 68 1009.8
20260903141531 78 114 0.0 3.0 0.00 0.00 0.00 70 1010.0
20260903140027 78 105 0.0 0.0 0.00 0.00 0.00 70 1009.9
20260903134527 78 105 0.0 0.0 0.00 0.00 0.00 70 1009.7
20260903133027 78 126 0.0 0.0 0.00 0.00 0.00 70 1009.6
20260903131524 78 108 0.0 5.0 0.00 0.00 0.00 69 1009.5
20260903130021 78 108 0.0 5.0 0.00 0.00 0.00 68 1009.2
20260903124523 78 121 4.0 8.0 0.00 0.00 0.00 67 1009.1
20260903123027 78 106 2.0 4.0 0.00 0.00 0.00 67 1008.9
20260903121518 78 105 0.0 3.0 0.00 0.00 0.00 68 1008.8
20260903120018 79 112 0.0 0.0 0.00 0.00 0.00 66 1008.7
20260903114520 78 103 1.0 4.0 0.00 0.00 0.00 66 1008.6
20260903113017 79 105 0.0 5.0 0.00 0.00 0.00 65 1008.6
20260903111516 78 109 0.0 3.0 0.00 0.00 0.00 67 1008.6
20260903110015 78 105 0.0 0.0 0.00 0.00 0.00 67 1008.5
20260903104514 78 102 1.0 6.0 0.00 0.00 0.00 67 1008.6
20260903103014 78 103 4.0 7.0 0.00 0.00 0.00 68 1008.8
20260903101511 78 104 2.0 7.0 0.00 0.00 0.00 68 1008.7
20260903100021 78 102 3.0 7.0 0.00 0.00 0.00 68 1008.8
20260903094510 78 105 2.0 8.0 0.00 0.00 0.00 68 1008.8
20260903093007 79 104 4.0 8.0 0.00 0.00 0.00 68 1008.8
20260903091507 79 105 2.0 8.0 0.00 0.00 0.00 68 1008.8
20260903090009 79 99 3.0 6.0 0.00 0.00 0.00 68 1008.8
20260903084505 79 105 1.0 5.0 0.00 0.00 0.00 67 1008.9
20260903083004 79 108 1.0 6.0 0.00 0.00 0.00 67 1008.8
20260903081504 79 117 2.0 7.0 0.00 0.00 0.00 66 1008.9
20260903080002 80 102 2.0 6.0 0.00 0.00 0.00 65 1008.8
20260903074559 80 108 3.0 8.0 0.00 0.00 0.00 65 1008.9
20260903073056 80 102 4.0 9.0 0.00 0.00 0.00 64 1008.9
20260903071624 81 120 3.0 7.0 0.00 0.00 0.00 64 1009.0
20260903064556 81 103 3.0 6.0 0.00 0.00 0.00 64 1008.7
20260903063102 81 98 0.0 2.0 0.00 0.00 0.00 64 1008.8
20260903061552 81 120 0.0 3.0 0.00 0.00 0.00 63 1008.8
20260903060051 81 104 0.0 4.0 0.00 0.00 0.00 62 1008.7
20260903054551 82 103 0.0 7.0 0.00 0.00 0.00 61 1008.9
20260903053050 82 107 4.0 7.0 0.00 0.00 0.00 59 1009.0
20260903051548 83 104 0.0 5.0 0.00 0.00 0.00 56 1009.0
20260903044558 83 109 0.0 4.0 0.00 0.00 0.00 53 1008.8
20260903043048 84 105 0.0 4.0 0.00 0.00 0.00 54 1008.7
20260903041556 84 115 0.0 4.0 0.00 0.00 0.00 54 1008.6
20260903040052 84 104 1.0 5.0 0.00 0.00 0.00 53 1008.7
20260903034545 84 97 3.0 8.0 0.00 0.00 0.00 53 1008.6
20260903033044 84 106 3.0 6.0 0.00 0.00 0.00 51 1008.5
20260903031543 84 96 2.0 4.0 0.00 0.00 0.00 51 1008.3
20260903030043 84 106 1.0 5.0 0.00 0.00 0.00 51 1008.1
20260903024542 84 102 0.0 3.0 0.00 0.00 0.00 52 1007.9
20260903023045 85 98 0.0 2.0 0.00 0.00 0.00 50 1007.8
20260903021541 85 104 0.0 4.0 0.00 0.00 0.00 49 1007.6
20260903020040 86 105 0.0 2.0 0.00 0.00 0.00 48 1007.5
20260903014540 86 123 0.0 2.0 0.00 0.00 0.00 49 1007.6
20260903013040 87 102 1.0 5.0 0.00 0.00 0.00 49 1007.3
20260903011539 88 115 0.0 5.0 0.00 0.00 0.00 47 1007.2
20260903010039 90 110 2.0 7.0 0.00 0.00 0.00 45 1007.1
20260903004547 91 119 4.0 9.0 0.00 0.00 0.00 43 1007.2
20260903003037 92 126 4.0 8.0 0.00 0.00 0.00 42 1007.2
20260903001536 93 110 1.0 6.0 0.00 0.00 0.00 41 1007.3
20260903000045 93 127 3.0 7.0 0.00 0.00 0.00 41 1007.2
20260902234535 93 104 2.0 8.0 0.00 0.00 0.00 40 1007.3
20260902233040 95 120 2.0 6.0 0.00 0.00 0.00 40 1007.2
20260902231540 93 115 3.0 9.0 0.00 0.00 0.00 42 1007.3
20260902230031 93 126 4.0 10.0 0.00 0.00 0.00 43 1007.7
20260902224530 93 115 1.0 8.0 0.00 0.00 0.00 44 1007.8
20260902223027 91 113 2.0 7.0 0.00 0.00 0.00 46 1007.9
20260902221526 89 120 0.0 5.0 0.00 0.00 0.00 47 1008.0
20260902220025 88 111 2.0 7.0 0.00 0.00 0.00 48 1008.2
20260902214625 90 109 2.0 6.0 0.00 0.00 0.00 47 1008.3
20260902213024 91 129 1.0 8.0 0.00 0.00 0.00 44 1008.2
20260902211527 91 131 4.0 9.0 0.00 0.00 0.00 44 1008.3
20260902210020 92 138 3.0 8.0 0.00 0.00 0.00 44 1008.5
20260902204519 92 135 1.0 6.0 0.00 0.00 0.00 41 1008.5
20260902203018 93 138 3.0 7.0 0.00 0.00 0.00 42 1008.7
20260902201521 96 145 1.0 8.0 0.00 0.00 0.00 39 1008.6
20260902200017 94 138 3.0 9.0 0.00 0.00 0.00 41 1008.7
20260902194512 94 122 4.0 7.0 0.00 0.00 0.00 42 1009.0
20260902193009 94 134 4.0 8.0 0.00 0.00 0.00 43 1009.3
20260902191507 94 139 1.0 8.0 0.00 0.00 0.00 43 1009.5
20260902190003 93 123 1.0 7.0 0.00 0.00 0.00 43 1010.0
20260902184601 93 122 1.0 6.0 0.00 0.00 0.00 44 1010.2
20260902183058 92 141 3.0 8.0 0.00 0.00 0.00 46 1010.3
20260902181554 92 134 1.0 5.0 0.00 0.00 0.00 46 1010.5
20260902180052 92 145 1.0 6.0 0.00 0.00 0.00 47 1010.8